| time (UTC) | temp C | wind direction | speed KPH | gust KPH | rain 1hr cm | rain 24hr cm | rain mn cm | humidity % | barometer mb |
| 20260507030007 | 8 | 263 | 17.7 | 0.0 | 0.00 | 0.00 | 0.00 | 93 | 1007.9 |
| 20260507025507 | 8 | 246 | 19.3 | 0.0 | 0.00 | 0.00 | 0.00 | 94 | 1008.0 |
| 20260507025005 | 8 | 252 | 17.7 | 0.0 | 0.00 | 0.00 | 0.00 | 94 | 1008.0 |
| 20260507024509 | 8 | 250 | 16.1 | 0.0 | 0.00 | 0.00 | 0.00 | 94 | 1007.9 |
| 20260507024006 | 8 | 269 | 17.7 | 0.0 | 0.00 | 0.00 | 0.00 | 94 | 1007.9 |
| 20260507023503 | 8 | 259 | 17.7 | 0.0 | 0.00 | 0.00 | 0.00 | 94 | 1008.1 |
| 20260507023003 | 8 | 246 | 14.5 | 0.0 | 0.00 | 0.00 | 0.00 | 94 | 1008.3 |
| 20260507022503 | 8 | 250 | 14.5 | 0.0 | 0.00 | 0.00 | 0.00 | 94 | 1008.2 |
| 20260507022003 | 8 | 258 | 14.5 | 0.0 | 0.00 | 0.00 | 0.00 | 94 | 1008.1 |
| 20260507021502 | 8 | 250 | 14.5 | 0.0 | 0.00 | 0.00 | 0.00 | 94 | 1008.0 |
| 20260507021002 | 8 | 261 | 16.1 | 0.0 | 0.00 | 0.00 | 0.00 | 94 | 1008.1 |
| 20260507020502 | 8 | 238 | 17.7 | 0.0 | 0.00 | 0.00 | 0.00 | 94 | 1008.2 |
| 20260507020002 | 8 | 230 | 19.3 | 0.0 | 0.00 | 0.00 | 0.00 | 94 | 1008.1 |
| 20260507015503 | 8 | 249 | 20.9 | 0.0 | 0.00 | 0.00 | 0.00 | 93 | 1008.0 |
| 20260507015001 | 8 | 258 | 19.3 | 0.0 | 0.00 | 0.00 | 0.00 | 93 | 1008.2 |
| 20260507014605 | 8 | 247 | 12.9 | 0.0 | 0.00 | 0.00 | 0.00 | 93 | 1008.2 |
| 20260507014059 | 8 | 234 | 8.0 | 0.0 | 0.00 | 0.00 | 0.00 | 93 | 1008.0 |
| 20260507013600 | 8 | 219 | 4.8 | 0.0 | 0.00 | 0.00 | 0.00 | 92 | 1008.0 |
| 20260507013059 | 9 | 223 | 4.8 | 0.0 | 0.00 | 0.00 | 0.00 | 92 | 1008.0 |
| 20260507012556 | 9 | 222 | 9.7 | 0.0 | 0.00 | 0.00 | 0.00 | 92 | 1007.8 |
| 20260507012056 | 9 | 222 | 12.9 | 0.0 | 0.00 | 0.00 | 0.00 | 92 | 1007.7 |
| 20260507011555 | 9 | 238 | 9.7 | 0.0 | 0.00 | 0.00 | 0.00 | 92 | 1007.9 |
| 20260507011056 | 9 | 223 | 9.7 | 0.0 | 0.00 | 0.00 | 0.00 | 91 | 1007.9 |
| 20260507010554 | 10 | 225 | 8.0 | 0.0 | 0.00 | 0.00 | 0.00 | 91 | 1007.7 |
| 20260507005553 | 10 | 224 | 8.0 | 0.0 | 0.00 | 0.00 | 0.00 | 90 | 1007.5 |
| 20260507005053 | 10 | 221 | 6.4 | 0.0 | 0.00 | 0.00 | 0.00 | 90 | 1007.5 |
| 20260507004602 | 10 | 351 | 6.4 | 0.0 | 0.00 | 0.00 | 0.00 | 88 | 1007.5 |
| 20260507004052 | 10 | 355 | 8.0 | 0.0 | 0.00 | 0.00 | 0.00 | 88 | 1007.5 |
| 20260507003555 | 10 | 355 | 9.7 | 0.0 | 0.00 | 0.00 | 0.00 | 89 | 1007.5 |
| 20260507003053 | 10 | 355 | 9.7 | 0.0 | 0.00 | 0.00 | 0.00 | 89 | 1007.4 |
| 20260507002551 | 10 | 350 | 9.7 | 0.0 | 0.00 | 0.00 | 0.00 | 89 | 1007.3 |
| 20260507002051 | 10 | 344 | 8.0 | 0.0 | 0.00 | 0.00 | 0.00 | 90 | 1007.3 |
| 20260507001552 | 10 | 351 | 6.4 | 0.0 | 0.00 | 0.00 | 0.00 | 91 | 1007.1 |
| 20260507001051 | 9 | 355 | 6.4 | 0.0 | 0.00 | 0.00 | 0.00 | 91 | 1006.8 |
| 20260507000551 | 10 | 315 | 8.0 | 0.0 | 0.00 | 0.00 | 0.00 | 91 | 1006.8 |
| 20260507000052 | 10 | 304 | 8.0 | 0.0 | 0.00 | 0.00 | 0.00 | 91 | 1006.8 |
| 20260506235555 | 10 | 310 | 9.7 | 0.0 | 0.00 | 0.00 | 0.00 | 89 | 1006.7 |
| 20260506235050 | 10 | 332 | 12.9 | 0.0 | 0.00 | 0.00 | 0.00 | 88 | 1006.5 |
| 20260506234552 | 9 | 348 | 11.3 | 0.0 | 0.00 | 0.00 | 0.00 | 91 | 1006.5 |
| 20260506234049 | 9 | 340 | 6.4 | 0.0 | 0.00 | 0.00 | 0.00 | 94 | 1006.4 |
| 20260506233550 | 9 | 348 | 4.8 | 0.0 | 0.00 | 0.00 | 0.00 | 95 | 1006.4 |
| 20260506233102 | 9 | 78 | 4.8 | 0.0 | 0.00 | 0.00 | 0.00 | 95 | 1006.0 |
| 20260506232547 | 9 | 75 | 4.8 | 0.0 | 0.00 | 0.00 | 0.00 | 95 | 1005.9 |
| 20260506232048 | 9 | 68 | 4.8 | 0.0 | 0.00 | 0.00 | 0.00 | 95 | 1005.8 |
| 20260506231554 | 10 | 83 | 6.4 | 0.0 | 0.00 | 0.00 | 0.00 | 95 | 1005.7 |
| 20260506231047 | 10 | 72 | 9.7 | 0.0 | 0.00 | 0.00 | 0.00 | 95 | 1005.7 |
| 20260506230547 | 10 | 63 | 19.3 | 0.0 | 0.00 | 0.00 | 0.00 | 95 | 1005.6 |
| 20260506230049 | 10 | 263 | 27.4 | 0.0 | 0.00 | 0.00 | 0.00 | 96 | 1005.5 |
| 20260506225545 | 10 | 256 | 24.1 | 0.0 | 0.00 | 0.00 | 0.00 | 95 | 1005.4 |
| 20260506225044 | 10 | 232 | 19.3 | 0.0 | 0.00 | 0.00 | 0.00 | 95 | 1005.3 |
| 20260506224544 | 10 | 221 | 16.1 | 0.0 | 0.00 | 0.00 | 0.00 | 95 | 1005.2 |
| 20260506224045 | 10 | 217 | 16.1 | 0.0 | 0.00 | 0.00 | 0.00 | 95 | 1005.2 |
| 20260506223541 | 10 | 220 | 14.5 | 0.0 | 0.00 | 0.00 | 0.00 | 95 | 1005.1 |
| 20260506223044 | 10 | 225 | 8.0 | 0.0 | 0.00 | 0.00 | 0.00 | 94 | 1005.1 |
| 20260506222538 | 10 | 219 | 3.2 | 0.0 | 0.00 | 0.00 | 0.00 | 94 | 1005.2 |
| 20260506222037 | 10 | 200 | 1.6 | 0.0 | 0.00 | 0.00 | 0.00 | 95 | 1005.0 |
| 20260506221539 | 10 | 165 | 1.6 | 0.0 | 0.00 | 0.00 | 0.00 | 94 | 1004.9 |
| 20260506221037 | 10 | 200 | 4.8 | 0.0 | 0.00 | 0.00 | 0.00 | 94 | 1004.8 |
| 20260506220536 | 10 | 158 | 8.0 | 0.0 | 0.00 | 0.00 | 0.00 | 94 | 1004.8 |
| 20260506220036 | 10 | 222 | 9.7 | 0.0 | 0.00 | 0.00 | 0.00 | 94 | 1004.7 |
| 20260506215536 | 11 | 219 | 8.0 | 0.0 | 0.00 | 0.00 | 0.00 | 94 | 1004.6 |
| 20260506215037 | 11 | 230 | 8.0 | 0.0 | 0.00 | 0.00 | 0.00 | 94 | 1004.6 |
| 20260506214541 | 11 | 171 | 12.9 | 0.0 | 0.00 | 0.00 | 0.00 | 94 | 1004.3 |
| 20260506214035 | 11 | 225 | 11.3 | 0.0 | 0.00 | 0.00 | 0.00 | 95 | 1004.4 |
| 20260506213533 | 11 | 209 | 8.0 | 0.0 | 0.00 | 0.00 | 0.00 | 95 | 1004.5 |
| 20260506213035 | 11 | 268 | 6.4 | 0.0 | 0.00 | 0.00 | 0.00 | 95 | 1004.2 |
| 20260506212533 | 11 | 261 | 3.2 | 0.0 | 0.00 | 0.00 | 0.00 | 95 | 1004.2 |
| 20260506212032 | 11 | 291 | 0.0 | 0.0 | 0.00 | 0.00 | 0.00 | 95 | 1004.2 |
| 20260506211532 | 11 | 108 | 0.0 | 0.0 | 0.00 | 0.00 | 0.00 | 95 | 1004.1 |
| 20260506211032 | 11 | 111 | 0.0 | 0.0 | 0.00 | 0.00 | 0.00 | 95 | 1004.0 |
| 20260506210532 | 11 | 111 | 1.6 | 0.0 | 0.00 | 0.00 | 0.00 | 95 | 1003.9 |
| 20260506210031 | 11 | 111 | 4.8 | 0.0 | 0.00 | 0.00 | 0.00 | 94 | 1003.9 |
| 20260506205531 | 11 | 90 | 6.4 | 0.0 | 0.00 | 0.00 | 0.00 | 95 | 1003.8 |
| 20260506205031 | 11 | 90 | 8.0 | 0.0 | 0.00 | 0.00 | 0.00 | 95 | 1003.8 |
| 20260506204532 | 12 | 57 | 8.0 | 0.0 | 0.00 | 0.00 | 0.00 | 94 | 1003.8 |
| 20260506204032 | 12 | 51 | 6.4 | 0.0 | 0.00 | 0.00 | 0.00 | 94 | 1003.7 |
| 20260506203532 | 12 | 9 | 6.4 | 0.0 | 0.00 | 0.00 | 0.00 | 94 | 1003.7 |
| 20260506203033 | 12 | 244 | 8.0 | 0.0 | 0.00 | 0.00 | 0.00 | 95 | 1003.6 |
| 20260506202532 | 12 | 250 | 9.7 | 0.0 | 0.00 | 0.00 | 0.00 | 95 | 1003.5 |
| 20260506202030 | 12 | 263 | 11.3 | 0.0 | 0.00 | 0.00 | 0.00 | 95 | 1003.6 |
| 20260506201530 | 12 | 240 | 14.5 | 0.0 | 0.00 | 0.00 | 0.00 | 95 | 1003.6 |
| 20260506201033 | 12 | 251 | 17.7 | 0.0 | 0.00 | 0.00 | 0.00 | 96 | 1003.5 |
| 20260506200529 | 13 | 245 | 12.9 | 0.0 | 0.00 | 0.00 | 0.00 | 96 | 1003.5 |
| 20260506200029 | 13 | 236 | 11.3 | 0.0 | 0.00 | 0.00 | 0.00 | 96 | 1003.4 |
| 20260506195529 | 13 | 244 | 9.7 | 0.0 | 0.00 | 0.00 | 0.00 | 96 | 1003.3 |
| 20260506195029 | 13 | 225 | 8.0 | 0.0 | 0.00 | 0.00 | 0.00 | 96 | 1003.3 |
| 20260506194529 | 13 | 242 | 8.0 | 0.0 | 0.00 | 0.00 | 0.00 | 96 | 1003.4 |
| 20260506194028 | 13 | 221 | 6.4 | 0.0 | 0.00 | 0.00 | 0.00 | 96 | 1003.3 |
| 20260506193533 | 13 | 242 | 4.8 | 0.0 | 0.00 | 0.00 | 0.00 | 96 | 1003.3 |
| 20260506193028 | 13 | 222 | 4.8 | 0.0 | 0.00 | 0.00 | 0.00 | 96 | 1003.4 |
| 20260506192528 | 13 | 220 | 4.8 | 0.0 | 0.00 | 0.00 | 0.00 | 96 | 1003.4 |
| 20260506192028 | 13 | 226 | 4.8 | 0.0 | 0.00 | 0.00 | 0.00 | 96 | 1003.4 |
| 20260506191528 | 13 | 221 | 3.2 | 0.0 | 0.00 | 0.00 | 0.00 | 96 | 1003.4 |
| 20260506191029 | 13 | 226 | 6.4 | 0.0 | 0.00 | 0.00 | 0.00 | 95 | 1003.3 |
| 20260506190527 | 13 | 271 | 8.0 | 0.0 | 0.00 | 0.00 | 0.00 | 95 | 1003.4 |
| 20260506190028 | 13 | 284 | 4.8 | 0.0 | 0.00 | 0.00 | 0.00 | 95 | 1003.3 |
| 20260506185530 | 13 | 281 | 3.2 | 0.0 | 0.00 | 0.00 | 0.00 | 95 | 1003.4 |
| 20260506185027 | 13 | 232 | 0.0 | 0.0 | 0.00 | 0.00 | 0.00 | 96 | 1003.3 |
| 20260506184541 | 13 | 232 | 1.6 | 0.0 | 0.00 | 0.00 | 0.00 | 96 | 1003.3 |
| 20260506184027 | 13 | 232 | 1.6 | 0.0 | 0.00 | 0.00 | 0.00 | 96 | 1003.3 |
| 20260506183530 | 13 | 231 | 0.0 | 0.0 | 0.00 | 0.00 | 0.00 | 96 | 1003.2 |
| 20260506183037 | 13 | 230 | 0.0 | 0.0 | 0.00 | 0.00 | 0.00 | 96 | 1003.3 |
| 20260506182525 | 13 | 230 | 1.6 | 0.0 | 0.00 | 0.00 | 0.00 | 96 | 1003.3 |
| 20260506182026 | 13 | 230 | 1.6 | 0.0 | 0.00 | 0.00 | 0.00 | 96 | 1003.3 |
| 20260506181536 | 13 | 241 | 3.2 | 0.0 | 0.00 | 0.00 | 0.00 | 96 | 1003.4 |
| 20260506181028 | 13 | 253 | 8.0 | 0.0 | 0.00 | 0.00 | 0.00 | 96 | 1003.5 |
| 20260506180525 | 13 | 259 | 9.7 | 0.0 | 0.00 | 0.00 | 0.00 | 96 | 1003.6 |
| 20260506180031 | 13 | 255 | 6.4 | 0.0 | 0.00 | 0.00 | 0.00 | 96 | 1003.7 |
| 20260506175524 | 13 | 171 | 3.2 | 0.0 | 0.00 | 0.00 | 0.00 | 96 | 1003.5 |
| 20260506175024 | 13 | 209 | 6.4 | 0.0 | 0.00 | 0.00 | 0.00 | 96 | 1003.4 |
| 20260506174526 | 13 | 157 | 9.7 | 0.0 | 0.00 | 0.00 | 0.00 | 96 | 1003.4 |
| 20260506174024 | 13 | 140 | 9.7 | 0.0 | 0.00 | 0.00 | 0.00 | 96 | 1003.5 |
| 20260506173526 | 13 | 145 | 6.4 | 0.0 | 0.00 | 0.00 | 0.00 | 96 | 1003.4 |
| 20260506173023 | 13 | 132 | 6.4 | 0.0 | 0.00 | 0.00 | 0.00 | 96 | 1003.5 |
| 20260506172521 | 13 | 147 | 6.4 | 0.0 | 0.00 | 0.00 | 0.00 | 96 | 1003.5 |
| 20260506172021 | 13 | 222 | 6.4 | 0.0 | 0.00 | 0.00 | 0.00 | 96 | 1003.6 |
| 20260506171522 | 13 | 244 | 6.4 | 0.0 | 0.00 | 0.00 | 0.00 | 96 | 1003.7 |
| 20260506171021 | 13 | 260 | 3.2 | 0.0 | 0.00 | 0.00 | 0.00 | 96 | 1003.7 |
| 20260506170522 | 13 | 171 | 3.2 | 0.0 | 0.00 | 0.00 | 0.00 | 96 | 1003.6 |
| 20260506170022 | 13 | 163 | 1.6 | 0.0 | 0.00 | 0.00 | 0.00 | 96 | 1003.8 |
| 20260506165520 | 13 | 164 | 3.2 | 0.0 | 0.00 | 0.00 | 0.00 | 96 | 1003.7 |
| 20260506165023 | 13 | 157 | 3.2 | 0.0 | 0.00 | 0.00 | 0.00 | 96 | 1003.8 |
| 20260506164520 | 13 | 178 | 1.6 | 0.0 | 0.00 | 0.00 | 0.00 | 96 | 1003.8 |
| 20260506164019 | 13 | 200 | 1.6 | 0.0 | 0.00 | 0.00 | 0.00 | 96 | 1003.8 |
| 20260506163521 | 13 | 199 | 1.6 | 0.0 | 0.00 | 0.00 | 0.00 | 96 | 1003.8 |
| 20260506163021 | 13 | 176 | 1.6 | 0.0 | 0.00 | 0.00 | 0.00 | 96 | 1004.0 |
| 20260506162517 | 13 | 203 | 1.6 | 0.0 | 0.00 | 0.00 | 0.00 | 96 | 1004.1 |
| 20260506162020 | 13 | 196 | 3.2 | 0.0 | 0.00 | 0.00 | 0.00 | 97 | 1004.0 |
| 20260506161518 | 13 | 161 | 3.2 | 0.0 | 0.00 | 0.00 | 0.00 | 96 | 1004.1 |
| 20260506161017 | 13 | 228 | 1.6 | 0.0 | 0.00 | 0.00 | 0.00 | 97 | 1004.2 |
| 20260506160519 | 13 | 218 | 3.2 | 0.0 | 0.00 | 0.00 | 0.00 | 97 | 1004.2 |
| 20260506160020 | 12 | 225 | 3.2 | 0.0 | 0.00 | 0.00 | 0.00 | 97 | 1004.3 |
| 20260506155516 | 12 | 221 | 3.2 | 0.0 | 0.00 | 0.00 | 0.00 | 97 | 1004.3 |
| 20260506155017 | 12 | 208 | 4.8 | 0.0 | 0.00 | 0.00 | 0.00 | 97 | 1004.1 |
| 20260506154517 | 12 | 148 | 4.8 | 0.0 | 0.00 | 0.00 | 0.00 | 97 | 1004.0 |
| 20260506154016 | 12 | 143 | 6.4 | 0.0 | 0.00 | 0.00 | 0.00 | 97 | 1004.1 |
| 20260506153518 | 12 | 144 | 8.0 | 0.0 | 0.00 | 0.00 | 0.00 | 97 | 1004.3 |
| 20260506153020 | 12 | 123 | 8.0 | 0.0 | 0.00 | 0.00 | 0.00 | 97 | 1004.4 |
| 20260506152513 | 12 | 157 | 8.0 | 0.0 | 0.00 | 0.00 | 0.00 | 97 | 1004.4 |
| 20260506152015 | 12 | 140 | 9.7 | 0.0 | 0.00 | 0.00 | 0.00 | 97 | 1004.5 |
| 20260506151513 | 11 | 127 | 8.0 | 0.0 | 0.00 | 0.00 | 0.00 | 97 | 1004.6 |
| 20260506151011 | 11 | 130 | 3.2 | 0.0 | 0.00 | 0.00 | 0.00 | 96 | 1004.7 |
| 20260506150510 | 11 | 182 | 1.6 | 0.0 | 0.00 | 0.00 | 0.00 | 96 | 1004.8 |
| 20260506150010 | 11 | 205 | 0.0 | 0.0 | 0.00 | 0.00 | 0.00 | 96 | 1004.8 |
| 20260506145510 | 11 | 277 | 0.0 | 0.0 | 0.00 | 0.00 | 0.00 | 95 | 1005.0 |
| 20260506145008 | 11 | 277 | 0.0 | 0.0 | 0.00 | 0.00 | 0.00 | 95 | 1005.0 |
| 20260506144514 | 11 | 277 | 0.0 | 0.0 | 0.00 | 0.00 | 0.00 | 95 | 1005.0 |
| 20260506144008 | 11 | 277 | 1.6 | 0.0 | 0.00 | 0.00 | 0.00 | 95 | 1005.0 |
| 20260506143508 | 11 | 277 | 1.6 | 0.0 | 0.00 | 0.00 | 0.00 | 95 | 1005.1 |
| 20260506143009 | 11 | 277 | 0.0 | 0.0 | 0.00 | 0.00 | 0.00 | 95 | 1005.1 |
| 20260506142507 | 11 | 277 | 0.0 | 0.0 | 0.00 | 0.00 | 0.00 | 95 | 1005.3 |
| 20260506142007 | 11 | 277 | 0.0 | 0.0 | 0.00 | 0.00 | 0.00 | 95 | 1005.3 |
| 20260506141507 | 11 | 277 | 0.0 | 0.0 | 0.00 | 0.00 | 0.00 | 95 | 1005.4 |
| 20260506141009 | 11 | 277 | 0.0 | 0.0 | 0.00 | 0.00 | 0.00 | 95 | 1005.4 |
| 20260506140511 | 11 | 277 | 1.6 | 0.0 | 0.00 | 0.00 | 0.00 | 95 | 1005.5 |
| 20260506140006 | 11 | 277 | 1.6 | 0.0 | 0.00 | 0.00 | 0.00 | 95 | 1005.4 |
| 20260506135506 | 11 | 277 | 0.0 | 0.0 | 0.00 | 0.00 | 0.00 | 95 | 1005.4 |
| 20260506135006 | 11 | 277 | 0.0 | 0.0 | 0.00 | 0.00 | 0.00 | 95 | 1005.4 |
| 20260506134507 | 11 | 277 | 1.6 | 0.0 | 0.00 | 0.00 | 0.00 | 95 | 1005.4 |
| 20260506134011 | 11 | 277 | 1.6 | 0.0 | 0.00 | 0.00 | 0.00 | 95 | 1005.3 |
| 20260506133508 | 11 | 277 | 3.2 | 0.0 | 0.00 | 0.00 | 0.00 | 95 | 1005.3 |
| 20260506133005 | 11 | 277 | 4.8 | 0.0 | 0.00 | 0.00 | 0.00 | 95 | 1005.1 |
| 20260506132510 | 11 | 277 | 4.8 | 0.0 | 0.00 | 0.00 | 0.00 | 95 | 1005.2 |
| 20260506132005 | 11 | 277 | 6.4 | 0.0 | 0.00 | 0.00 | 0.00 | 95 | 1005.0 |
| 20260506131505 | 11 | 275 | 4.8 | 0.0 | 0.00 | 0.00 | 0.00 | 95 | 1005.2 |
| 20260506131005 | 11 | 270 | 4.8 | 0.0 | 0.00 | 0.00 | 0.00 | 95 | 1005.2 |
| 20260506130507 | 11 | 241 | 3.2 | 0.0 | 0.00 | 0.00 | 0.00 | 95 | 1005.4 |
| 20260506130005 | 11 | 113 | 3.2 | 0.0 | 0.00 | 0.00 | 0.00 | 95 | 1005.2 |
| 20260506125504 | 11 | 113 | 1.6 | 0.0 | 0.00 | 0.00 | 0.00 | 95 | 1005.1 |
| 20260506125005 | 11 | 114 | 0.0 | 0.0 | 0.00 | 0.00 | 0.00 | 95 | 1005.2 |
| 20260506124504 | 11 | 114 | 0.0 | 0.0 | 0.00 | 0.00 | 0.00 | 95 | 1005.2 |
| 20260506124006 | 11 | 114 | 0.0 | 0.0 | 0.00 | 0.00 | 0.00 | 95 | 1005.4 |
| 20260506123504 | 11 | 114 | 1.6 | 0.0 | 0.00 | 0.00 | 0.00 | 95 | 1005.4 |
| 20260506123004 | 11 | 114 | 3.2 | 0.0 | 0.00 | 0.00 | 0.00 | 95 | 1005.5 |
| 20260506122505 | 11 | 115 | 3.2 | 0.0 | 0.00 | 0.00 | 0.00 | 95 | 1005.5 |
| 20260506122004 | 11 | 116 | 3.2 | 0.0 | 0.00 | 0.00 | 0.00 | 95 | 1005.5 |
| 20260506121504 | 11 | 198 | 1.6 | 0.0 | 0.00 | 0.00 | 0.00 | 95 | 1005.6 |
| 20260506121003 | 11 | 198 | 3.2 | 0.0 | 0.00 | 0.00 | 0.00 | 95 | 1005.6 |
| 20260506120503 | 11 | 245 | 1.6 | 0.0 | 0.00 | 0.00 | 0.00 | 95 | 1005.8 |
| 20260506120008 | 11 | 246 | 1.6 | 0.0 | 0.00 | 0.00 | 0.00 | 95 | 1006.1 |
| 20260506115503 | 11 | 234 | 3.2 | 0.0 | 0.00 | 0.00 | 0.00 | 95 | 1005.9 |
| 20260506115001 | 11 | 234 | 3.2 | 0.0 | 0.00 | 0.00 | 0.00 | 95 | 1006.0 |
| 20260506114504 | 10 | 225 | 1.6 | 0.0 | 0.00 | 0.00 | 0.00 | 95 | 1006.0 |
| 20260506114003 | 11 | 223 | 4.8 | 0.0 | 0.00 | 0.00 | 0.00 | 95 | 1005.7 |
| 20260506113502 | 10 | 221 | 6.4 | 0.0 | 0.00 | 0.00 | 0.00 | 95 | 1005.7 |
| 20260506113100 | 10 | 244 | 4.8 | 0.0 | 0.00 | 0.00 | 0.00 | 95 | 1005.7 |
| 20260506112600 | 10 | 242 | 4.8 | 0.0 | 0.00 | 0.00 | 0.00 | 95 | 1005.6 |
| 20260506112059 | 10 | 219 | 3.2 | 0.0 | 0.00 | 0.00 | 0.00 | 95 | 1005.5 |
| 20260506111559 | 10 | 207 | 1.6 | 0.0 | 0.00 | 0.00 | 0.00 | 95 | 1005.5 |
| 20260506111059 | 10 | 205 | 0.0 | 0.0 | 0.00 | 0.00 | 0.00 | 94 | 1005.5 |
| 20260506110559 | 10 | 200 | 0.0 | 0.0 | 0.00 | 0.00 | 0.00 | 95 | 1005.5 |
| 20260506110059 | 10 | 200 | 0.0 | 0.0 | 0.00 | 0.00 | 0.00 | 94 | 1005.5 |
| 20260506105559 | 10 | 200 | 0.0 | 0.0 | 0.00 | 0.00 | 0.00 | 95 | 1005.4 |
| 20260506105059 | 10 | 200 | 0.0 | 0.0 | 0.00 | 0.00 | 0.00 | 94 | 1005.4 |
| 20260506104601 | 10 | 200 | 0.0 | 0.0 | 0.00 | 0.00 | 0.00 | 94 | 1005.5 |
| 20260506104058 | 10 | 200 | 0.0 | 0.0 | 0.00 | 0.00 | 0.00 | 94 | 1005.5 |
| 20260506103558 | 10 | 200 | 0.0 | 0.0 | 0.00 | 0.00 | 0.00 | 94 | 1005.5 |
| 20260506103058 | 10 | 200 | 1.6 | 0.0 | 0.00 | 0.00 | 0.00 | 94 | 1005.8 |
| 20260506102558 | 10 | 200 | 3.2 | 0.0 | 0.00 | 0.00 | 0.00 | 94 | 1005.9 |
| 20260506102059 | 10 | 125 | 3.2 | 0.0 | 0.00 | 0.00 | 0.00 | 94 | 1005.8 |
| 20260506101556 | 10 | 132 | 3.2 | 0.0 | 0.00 | 0.00 | 0.00 | 94 | 1005.7 |
| 20260506101056 | 10 | 222 | 3.2 | 0.0 | 0.00 | 0.00 | 0.00 | 94 | 1005.7 |
| 20260506100556 | 10 | 127 | 1.6 | 0.0 | 0.00 | 0.00 | 0.00 | 94 | 1005.6 |
| 20260506100056 | 10 | 182 | 1.6 | 0.0 | 0.00 | 0.00 | 0.00 | 94 | 1005.6 |
| 20260506095556 | 10 | 246 | 1.6 | 0.0 | 0.00 | 0.00 | 0.00 | 94 | 1005.7 |
| 20260506095056 | 10 | 246 | 3.2 | 0.0 | 0.00 | 0.00 | 0.00 | 94 | 1005.6 |
| 20260506094556 | 10 | 243 | 1.6 | 0.0 | 0.00 | 0.00 | 0.00 | 94 | 1005.6 |
| 20260506094058 | 10 | 249 | 1.6 | 0.0 | 0.00 | 0.00 | 0.00 | 94 | 1005.5 |
| 20260506093555 | 10 | 249 | 1.6 | 0.0 | 0.00 | 0.00 | 0.00 | 94 | 1005.2 |
| 20260506093054 | 10 | 249 | 1.6 | 0.0 | 0.00 | 0.00 | 0.00 | 94 | 1005.1 |
| 20260506092553 | 10 | 250 | 0.0 | 0.0 | 0.00 | 0.00 | 0.00 | 93 | 1005.2 |
| 20260506092053 | 11 | 250 | 0.0 | 0.0 | 0.00 | 0.00 | 0.00 | 93 | 1005.4 |
| 20260506091559 | 11 | 250 | 0.0 | 0.0 | 0.00 | 0.00 | 0.00 | 93 | 1005.5 |
| 20260506091054 | 11 | 250 | 0.0 | 0.0 | 0.00 | 0.00 | 0.00 | 94 | 1005.4 |
| 20260506090555 | 11 | 250 | 0.0 | 0.0 | 0.00 | 0.00 | 0.00 | 94 | 1005.5 |
| 20260506090058 | 11 | 250 | 1.6 | 0.0 | 0.00 | 0.00 | 0.00 | 94 | 1005.5 |
| 20260506085551 | 11 | 250 | 4.8 | 0.0 | 0.00 | 0.00 | 0.00 | 93 | 1005.8 |
| 20260506085051 | 11 | 250 | 4.8 | 0.0 | 0.00 | 0.00 | 0.00 | 93 | 1005.9 |
| 20260506084552 | 11 | 240 | 3.2 | 0.0 | 0.00 | 0.00 | 0.00 | 93 | 1005.7 |
| 20260506084050 | 11 | 225 | 1.6 | 0.0 | 0.00 | 0.00 | 0.00 | 93 | 1005.6 |
| 20260506083549 | 11 | 225 | 3.2 | 0.0 | 0.00 | 0.00 | 0.00 | 93 | 1005.6 |
| 20260506083049 | 11 | 225 | 3.2 | 0.0 | 0.00 | 0.00 | 0.00 | 93 | 1005.7 |
| 20260506082548 | 11 | 150 | 0.0 | 0.0 | 0.00 | 0.00 | 0.00 | 93 | 1005.8 |
| 20260506082048 | 11 | 144 | 1.6 | 0.0 | 0.00 | 0.00 | 0.00 | 93 | 1005.8 |
| 20260506081547 | 11 | 144 | 1.6 | 0.0 | 0.00 | 0.00 | 0.00 | 94 | 1005.7 |
| 20260506081047 | 11 | 144 | 1.6 | 0.0 | 0.00 | 0.00 | 0.00 | 94 | 1005.7 |
| 20260506080547 | 11 | 150 | 0.0 | 0.0 | 0.00 | 0.00 | 0.00 | 94 | 1005.9 |
| 20260506073043 | 11 | 155 | 1.6 | 0.0 | 0.00 | 0.00 | 0.00 | 93 | 1006.3 |
| 20260506072542 | 11 | 155 | 1.6 | 0.0 | 0.00 | 0.00 | 0.00 | 93 | 1006.3 |
| 20260506072042 | 11 | 154 | 0.0 | 0.0 | 0.00 | 0.00 | 0.00 | 93 | 1006.5 |
| 20260506071542 | 11 | 148 | 0.0 | 0.0 | 0.00 | 0.00 | 0.00 | 93 | 1006.6 |
| 20260506071041 | 11 | 146 | 0.0 | 0.0 | 0.00 | 0.00 | 0.00 | 93 | 1006.5 |
| 20260506070541 | 11 | 146 | 0.0 | 0.0 | 0.00 | 0.00 | 0.00 | 93 | 1006.5 |
| 20260506062038 | 11 | 138 | 4.8 | 0.0 | 0.00 | 0.00 | 0.00 | 93 | 1006.4 |
| 20260506061540 | 11 | 138 | 6.4 | 0.0 | 0.00 | 0.00 | 0.00 | 93 | 1006.6 |
| 20260506061038 | 11 | 138 | 4.8 | 0.0 | 0.00 | 0.00 | 0.00 | 93 | 1006.6 |
| 20260506060537 | 11 | 149 | 3.2 | 0.0 | 0.00 | 0.00 | 0.00 | 93 | 1006.5 |
| 20260506051031 | 12 | 263 | 9.7 | 0.0 | 0.00 | 0.00 | 0.00 | 92 | 1006.5 |
| 20260506050530 | 12 | 243 | 8.0 | 0.0 | 0.00 | 0.00 | 0.00 | 92 | 1006.8 |
| 20260506045025 | 13 | 257 | 3.2 | 0.0 | 0.00 | 0.00 | 0.00 | 92 | 1007.0 |
| 20260506044525 | 13 | 218 | 0.0 | 0.0 | 0.00 | 0.00 | 0.00 | 93 | 1006.9 |
| 20260506044024 | 13 | 179 | 0.0 | 0.0 | 0.00 | 0.00 | 0.00 | 93 | 1006.9 |
| 20260506043527 | 13 | 179 | 0.0 | 0.0 | 0.00 | 0.00 | 0.00 | 93 | 1007.1 |
| 20260506043022 | 13 | 179 | 0.0 | 0.0 | 0.00 | 0.00 | 0.00 | 93 | 1007.3 |
| 20260506042522 | 13 | 179 | 0.0 | 0.0 | 0.00 | 0.00 | 0.00 | 93 | 1007.2 |
| 20260506042020 | 13 | 179 | 0.0 | 0.0 | 0.00 | 0.00 | 0.00 | 93 | 1007.3 |
| 20260506041520 | 13 | 179 | 0.0 | 0.0 | 0.00 | 0.00 | 0.00 | 93 | 1007.6 |
| 20260506041020 | 13 | 179 | 0.0 | 0.0 | 0.00 | 0.00 | 0.00 | 93 | 1007.5 |
| 20260506040521 | 13 | 179 | 0.0 | 0.0 | 0.00 | 0.00 | 0.00 | 93 | 1007.5 |
| 20260506040023 | 13 | 179 | 0.0 | 0.0 | 0.00 | 0.00 | 0.00 | 93 | 1007.5 |
| 20260506035519 | 13 | 177 | 0.0 | 0.0 | 0.00 | 0.00 | 0.00 | 93 | 1007.5 |
| 20260506035016 | 13 | 153 | 1.6 | 0.0 | 0.00 | 0.00 | 0.00 | 93 | 1007.3 |
| 20260506034521 | 13 | 153 | 1.6 | 0.0 | 0.00 | 0.00 | 0.00 | 93 | 1007.1 |
| 20260506034017 | 13 | 152 | 1.6 | 0.0 | 0.00 | 0.00 | 0.00 | 94 | 1007.2 |
| 20260506033516 | 13 | 149 | 4.8 | 0.0 | 0.00 | 0.00 | 0.00 | 93 | 1007.2 |
| 20260506033015 | 13 | 149 | 6.4 | 0.0 | 0.00 | 0.00 | 0.00 | 93 | 1006.9 |
| 20260506032515 | 13 | 149 | 3.2 | 0.0 | 0.00 | 0.00 | 0.00 | 93 | 1007.1 |
| 20260506032015 | 13 | 182 | 0.0 | 0.0 | 0.00 | 0.00 | 0.00 | 93 | 1007.1 |
| 20260506031517 | 13 | 182 | 0.0 | 0.0 | 0.00 | 0.00 | 0.00 | 93 | 1007.0 |
| 20260506031015 | 13 | 182 | 3.2 | 0.0 | 0.00 | 0.00 | 0.00 | 93 | 1006.9 |
| 20260506030514 | 12 | 182 | 3.2 | 0.0 | 0.00 | 0.00 | 0.00 | 93 | 1006.8 |